Terminal Aerodrome Forecast
Issued by NWS

Current Version | Previous Version | Graphics & Text | Print | Product List | Glossary On
Versions: 1 2 3 4 5 6 7 8 9 10 11 12 13 14 15 16 17 18
000
FTUS41 KPBZ 261700
TAFHLG
TAF
KHLG 261720Z 2618/2718 21005KT P6SM SCT045
     FM270900 VRB03KT P6SM VCSH BKN040
     FM271400 32008KT P6SM BKN035=

USA.gov is the U.S. government's official web portal to all federal, state and local government web resources and services.